St. Cloud, MN

6:15 PM CDT on July 23, 2019 (GMT -0500)
Saint Cloud Regional

Weather History for KSTC - May, 2019

Change the Weather History Date:

Friday, May 17, 2019

  Actual Average Record
Temperature  
Mean Temperature 57 °F 57 °F  
Max Temperature 68 °F 69 °F 90 °F (1972)
Min Temperature 46 °F 45 °F 28 °F (1973)
Degree Days  
Heating Degree Days 8 9  
Month to date heating degree days 256 189  
Since 1 July heating degree days 9054 8356  
Cooling Degree Days 0 1  
Month to date cooling degree days 0 9  
Year to date cooling degree days 0 11  
Growing Degree Days 7 (Base 50)    
Moisture  
Dew Point 34 °F    
Average Humidity 43    
Maximum Humidity 59    
Minimum Humidity 31    
Precipitation  
Precipitation 0.09 in 0.09 in 1.41 in (2015)
Month to date precipitation 1.47 1.59  
Year to date precipitation 8.82 6.95  
Snow  
Snow 0.00 in 0.00 in T in (1915)
Month to date snowfall 0.4 0.0  
Since 1 July snowfall 68.9 45.7  
Snow Depth 0.00 in    
Sea Level Pressure  
Sea Level Pressure 29.91 in    
Wind  
Wind Speed 9 mph ()    
Max Wind Speed 18 mph    
Max Gust Speed 29 mph    
Visibility 10.0 miles    
Events Rain    
T = Trace of Precipitation, MM = Missing Value Source: Averaged Metar Reports

Daily Weather History Graph

Daily Weather History Graph

Search for Another Location

Airport or City:

Astronomy

May. 17, 2019 Rise Set
Actual Time 5:43 AM CDT 8:42 PM CDT
Civil Twilight 5:08 AM CDT 9:17 PM CDT
Nautical Twilight 4:23 AM CDT 10:02 PM CDT
Astronomical Twilight 3:30 AM CDT 10:56 PM CDT
Moon 7:25 PM CDT (5/17) 5:23 AM CDT (5/17)
Length of Visible Light 16h 09m
Length of Day
14h 59m
Waxing Gibbous, 98% of the Moon is Illuminated
May 17
Waxing Gibbous
May 18
Full
May 26
Last Quarter
Jun 3
New
Jun 10
First Quarter

Hourly Weather History & Observations

Time (CDT) Temp. Dew Point Humidity Pressure Visibility Wind Dir Wind Speed Gust Speed Precip Events Conditions
12:53 AM 50.0 °F 36.0 °F 59% 29.90 in 10.0 mi North 6.9 mph - N/A   Clear
1:53 AM 50.0 °F 32.0 °F 50% 29.90 in 10.0 mi North 6.9 mph - N/A   Clear
2:53 AM 48.9 °F 32.0 °F 52% 29.91 in 10.0 mi NNE 8.1 mph - N/A   Clear
3:53 AM 48.9 °F 30.9 °F 50% 29.94 in 10.0 mi NNE 8.1 mph - N/A   Clear
4:53 AM 46.9 °F 30.9 °F 54% 29.92 in 10.0 mi NE 9.2 mph - N/A   Clear
5:53 AM 46.9 °F 30.9 °F 54% 29.96 in 10.0 mi NE 6.9 mph - N/A   Clear
6:53 AM 46.9 °F 32.0 °F 56% 29.95 in 10.0 mi NE 6.9 mph - N/A   Clear
7:53 AM 51.1 °F 34.0 °F 52% 29.95 in 10.0 mi NE 11.5 mph - N/A   Clear
8:53 AM 54.0 °F 36.0 °F 51% 29.93 in 10.0 mi NE 11.5 mph - N/A   Clear
9:53 AM 55.9 °F 37.0 °F 49% 29.93 in 10.0 mi East 11.5 mph 24.2 mph N/A   Clear
10:53 AM 57.9 °F 37.0 °F 46% 29.96 in 10.0 mi ENE 12.7 mph 19.6 mph N/A   Scattered Clouds
11:53 AM 61.0 °F 37.9 °F 42% 29.96 in 10.0 mi East 11.5 mph 19.6 mph N/A   Partly Cloudy
12:53 PM 63.0 °F 37.0 °F 38% 29.94 in 10.0 mi East 11.5 mph 25.3 mph N/A   Clear
1:53 PM 64.9 °F 36.0 °F 34% 29.92 in 10.0 mi ENE 10.4 mph 19.6 mph N/A   Clear
2:53 PM 66.0 °F 35.1 °F 32% 29.90 in 10.0 mi East 13.8 mph 24.2 mph N/A   Partly Cloudy
3:53 PM 66.9 °F 36.0 °F 32% 29.89 in 10.0 mi NE 15.0 mph 21.9 mph N/A   Clear
4:53 PM 64.9 °F 34.0 °F 32% 29.88 in 10.0 mi ENE 12.7 mph - N/A   Mostly Cloudy
5:53 PM 64.0 °F 34.0 °F 33% 29.88 in 10.0 mi ENE 8.1 mph 17.3 mph N/A   Overcast
6:53 PM 63.0 °F 34.0 °F 34% 29.86 in 10.0 mi NE 13.8 mph 26.5 mph N/A   Mostly Cloudy
7:53 PM 62.1 °F 32.0 °F 32% 29.86 in 10.0 mi ENE 12.7 mph 19.6 mph N/A   Mostly Cloudy
8:53 PM 60.1 °F 30.9 °F 33% 29.84 in 10.0 mi ENE 12.7 mph 25.3 mph N/A   Overcast
9:53 PM 57.9 °F 34.0 °F 41% 29.85 in 10.0 mi ENE 10.4 mph 20.7 mph N/A   Overcast
10:53 PM 57.0 °F 28.9 °F 34% 29.86 in 10.0 mi ENE 15.0 mph 26.5 mph N/A   Overcast
11:53 PM 51.1 °F 33.1 °F 50% 29.85 in 10.0 mi ENE 10.4 mph 21.9 mph 0.01 in Rain Light Rain